Farmington, MO

7:07 PM CST on December 07, 2019 (GMT -0600)
Farmington Regional

Weather History for KFAM - October, 2019

Change the Weather History Date:

Thursday, October 3, 2019

  Actual Average Record
Temperature  
Mean Temperature 68 °F -  
Max Temperature 79 °F 70 °F 87 °F (2000)
Min Temperature 55 °F 47 °F 33 °F (2004)
Cooling Degree Days 3    
Growing Degree Days 18 (Base 50)    
Moisture  
Dew Point 62 °F    
Average Humidity 77    
Maximum Humidity 90    
Minimum Humidity 52    
Precipitation  
Precipitation 0.00 in - - ()
Sea Level Pressure  
Sea Level Pressure 30.13 in    
Wind  
Wind Speed 4 mph (NNW)    
Max Wind Speed 12 mph    
Max Gust Speed 20 mph    
Visibility 10 miles    
Events      
Averages and records for this station are not official NWS values.
T = Trace of Precipitation, MM = Missing Value Source: NWS Daily Summary

Daily Weather History Graph

Daily Weather History Graph

Search for Another Location

Airport or City:

Astronomy

Oct. 03, 2019 Rise Set
Actual Time 6:58 AM CDT 6:42 PM CDT
Civil Twilight 6:32 AM CDT 7:08 PM CDT
Nautical Twilight 6:02 AM CDT 7:38 PM CDT
Astronomical Twilight 5:31 AM CDT 8:09 PM CDT
Moon 12:25 PM CDT (10/3) 10:26 PM CDT (10/3)
Length of Visible Light 12h 35m
Length of Day
11h 43m
Waxing Crescent, 30% of the Moon is Illuminated
Oct 3
Waxing Crescent
Oct 5
First Quarter
Oct 13
Full
Oct 21
Last Quarter
Oct 27
New

Hourly Weather History & Observations

Time (CDT) Temp. Dew Point Humidity Pressure Visibility Wind Dir Wind Speed Gust Speed Precip Events Conditions
12:56 AM 68.0 °F 63.0 °F 84% 29.99 in 10.0 mi Calm Calm - N/A   Clear
1:56 AM 68.0 °F 64.0 °F 87% 30.00 in 10.0 mi Calm Calm - N/A   Clear
2:56 AM 66.9 °F 63.0 °F 87% 30.02 in 10.0 mi Calm Calm - N/A   Clear
3:56 AM 66.9 °F 63.0 °F 87% 30.02 in 10.0 mi Calm Calm - N/A   Clear
4:56 AM 66.0 °F 63.0 °F 90% 30.02 in 10.0 mi Calm Calm - N/A   Clear
5:56 AM 66.0 °F 63.0 °F 90% 30.04 in 10.0 mi Calm Calm - N/A   Clear
6:56 AM 69.1 °F 64.0 °F 84% 30.07 in 10.0 mi WNW 3.5 mph - N/A   Clear
7:56 AM 73.0 °F 66.9 °F 81% 30.09 in 10.0 mi NW 4.6 mph - N/A   Clear
8:51 AM 75.2 °F 69.8 °F 83% 30.09 in 10.0 mi NW 9.2 mph - N/A   Mostly Cloudy
8:56 AM 75.0 °F 69.1 °F 82% 30.10 in 10.0 mi NW 10.4 mph - N/A   Mostly Cloudy
9:56 AM 73.9 °F 69.1 °F 85% 30.12 in 10.0 mi NNW 9.2 mph - N/A   Overcast
10:56 AM 73.0 °F 66.9 °F 81% 30.15 in 10.0 mi NNW 6.9 mph - N/A   Overcast
11:44 AM 73.4 °F 66.2 °F 78% 30.15 in 10.0 mi NNW 9.2 mph - N/A   Overcast
11:56 AM 73.9 °F 66.0 °F 76% 30.16 in 10.0 mi NNW 8.1 mph - N/A   Overcast
12:56 PM 75.9 °F 64.9 °F 69% 30.17 in 10.0 mi NNW 10.4 mph - N/A   Mostly Cloudy
1:43 PM 78.8 °F 64.4 °F 61% 30.14 in 10.0 mi Variable 6.9 mph - N/A   Scattered Clouds
1:56 PM 77.0 °F 63.0 °F 62% 30.15 in 10.0 mi NNW 8.1 mph - N/A   Clear
3:56 PM 79.0 °F 60.1 °F 52% 30.14 in 10.0 mi NW 11.5 mph - N/A   Clear
4:56 PM 77.0 °F 60.1 °F 56% 30.17 in 10.0 mi NNW 9.2 mph - N/A   Clear
5:56 PM 72.0 °F 57.9 °F 61% 30.18 in 10.0 mi NNW 11.5 mph 19.6 mph N/A   Overcast
6:56 PM 69.1 °F 57.9 °F 68% 30.19 in 10.0 mi North 9.2 mph - N/A   Scattered Clouds
7:56 PM 64.9 °F 57.0 °F 75% 30.21 in 10.0 mi North 9.2 mph - N/A   Clear
8:56 PM 63.0 °F 54.0 °F 72% 30.24 in 10.0 mi North 5.8 mph - N/A   Clear
9:56 PM 61.0 °F 54.0 °F 78% 30.26 in 10.0 mi NNW 6.9 mph - N/A   Clear
10:56 PM 57.9 °F 52.0 °F 81% 30.28 in 10.0 mi North 8.1 mph - N/A   Clear
11:56 PM 55.9 °F 51.1 °F 84% 30.30 in 10.0 mi Calm Calm - N/A   Clear